Location: Recife
(8.0585°S, 34.8848°W)
Time: 20:53:18
(UTC-03:00)

Explorer 11/Cluster Stage 4 - Pass Details

Date: 21 April 2026
Orbit: 463 x 1174 km, 28.8° (Epoch: 16 May)

Event Time Altitude Azimuth Distance (km) Brightness Sun altitude
Rises 17:09:33 0° 297° (WNW) 3,975 12.2 0.4°
Reaches altitude 10° 17:12:31 10° 295° (WNW) 2,959 11.4 -0.3°
Maximum altitude 17:19:51 77° 210° (SSW) 1,017 7.3 -2.1°
Drops below altitude 10° 17:26:01 10° 124° (SE) 2,505 8.6 -3.6°
Enters shadow 17:27:45 - 122° (ESE) 3,119 9.1 -4.0°
Sets 17:28:21 0° 122° (ESE) 3,335 - -4.1°
